Darstellungsparameter: Aktuell verwendete Einstellungen:
Skalierung der Graphiken ... ?
xyx+y,   Skalierungsfaktor:      Skalierung: Modus: x, Faktor: 1
Darstellungszeitraum ... ?
Vom - - bis: - -   Zeitraum: 18.04.2021 - 18.04.2021
Min/Max/Avg-Anzeige ... ?
Zeige MMA aktuell
Zeige MMA Monat
Zeige MMA alles
Zeige --A aktuell
Zeige --A Monat
Zeige --A alles
Keine MMA-Anzeige
MMA:
Average (ber die Originaldaten)
MMA-Basis: 23.02.2003 - 30.09.2020
Quicknavigation für Darstellung... ?
Tage:      1T, 2T, 3T, 5T -1T -2T -3T -5T +1T +2T +3T +5T
Wochen: 1W, 2W, 3W -1W -2W -3W +1W +2W +3W
Monate: 1M, 3M, 6M -1M -3M -6M +1M +3M +6M
Jahre:    1J, 3J, 5J, 10J -1J -3J -5J -10J +1J +3J +5J +10J
Nutze für die Darstellung ... ?
Originaldaten oder Mittelwerte auf ...
Stundenbasis Tagesbasis Wochenbasis
Monatsbasis Jahresbasis      Datenbasis: Original-Daten
Darstellen als:
Statistik (Auto) Statistik J:M      Darstellung:
Zur Graphik,    zurück zur Übersicht aller Sensoren.
 
Tabellarische Datenbersicht: ?
 
Sensor: Nr:Datum:Temp:Abs-Feuchte:Windchill:Wind:
Aussen-T/F 1 18-04-2021 00:00:00 7.6 C 6.04 g/m*3 7.6 C 0 km/h
2 18-04-2021 00:05:00 7.5 C 6 g/m*3 7.5 C 0 km/h
3 18-04-2021 00:10:00 7.5 C 6 g/m*3 7.5 C 0 km/h
4 18-04-2021 00:15:00 7.4 C 5.96 g/m*3 7.4 C 0 km/h
5 18-04-2021 00:20:00 7.4 C 5.96 g/m*3 7.4 C 0 km/h
6 18-04-2021 00:25:00 7.3 C 5.93 g/m*3 7.3 C 0 km/h
7 18-04-2021 00:30:00 7.3 C 5.93 g/m*3 7.3 C 0 km/h
8 18-04-2021 00:35:00 7.3 C 6 g/m*3 7.3 C 0 km/h
9 18-04-2021 00:40:00 7.3 C 6 g/m*3 7.3 C 0 km/h
10 18-04-2021 00:45:00 7.3 C 6 g/m*3 7.3 C 0 km/h
11 18-04-2021 00:50:00 7.3 C 6 g/m*3 7.3 C 0 km/h
12 18-04-2021 00:55:00 7.3 C 6.08 g/m*3 7.3 C 0 km/h
13 18-04-2021 01:00:00 7.3 C 6.08 g/m*3 7.3 C 0 km/h
14 18-04-2021 01:05:00 7.2 C 6.04 g/m*3 7.2 C 0 km/h
15 18-04-2021 01:10:00 7.2 C 6.04 g/m*3 7.2 C 0 km/h
16 18-04-2021 01:15:00 7.2 C 6.04 g/m*3 7.2 C 0 km/h
17 18-04-2021 01:20:00 7.2 C 6.12 g/m*3 7.2 C 0 km/h
18 18-04-2021 01:25:00 7.1 C 6.01 g/m*3 7.1 C 0 km/h
19 18-04-2021 01:30:00 7.1 C 6.08 g/m*3 7.1 C 0 km/h
20 18-04-2021 01:35:00 7.1 C 6.08 g/m*3 7.1 C 0 km/h
21 18-04-2021 01:40:00 7.1 C 6.08 g/m*3 7.1 C 0 km/h
22 18-04-2021 01:45:00 7.1 C 6.08 g/m*3 7.1 C 0 km/h
23 18-04-2021 01:50:00 7.1 C 6.16 g/m*3 7.1 C 0 km/h
24 18-04-2021 01:55:00 7.1 C 6.08 g/m*3 7.1 C 0 km/h
25 18-04-2021 02:00:00 7.1 C 6.16 g/m*3 7.1 C 0 km/h
Sensor: Nr:Datum:Temp:Abs-Feuchte:Windchill:Wind:
Aussen-T/F 26 18-04-2021 02:05:00 7 C 6.04 g/m*3 7 C 0 km/h
27 18-04-2021 02:10:00 7 C 6.04 g/m*3 7 C 0 km/h
28 18-04-2021 02:15:00 7 C 6.12 g/m*3 7 C 0 km/h
29 18-04-2021 02:20:00 7 C 6.12 g/m*3 7 C 0 km/h
30 18-04-2021 02:25:00 6.9 C 6.08 g/m*3 6.9 C 0 km/h
31 18-04-2021 02:30:00 6.8 C 5.97 g/m*3 6.8 C 0 km/h
32 18-04-2021 02:35:00 6.7 C 5.85 g/m*3 6.7 C 0 km/h
33 18-04-2021 02:40:00 6.6 C 5.89 g/m*3 6.6 C 0 km/h
34 18-04-2021 02:45:00 6.4 C 5.81 g/m*3 6.4 C 0 km/h
35 18-04-2021 02:50:00 6.4 C 5.89 g/m*3 6.4 C 0 km/h
36 18-04-2021 02:55:00 6.3 C 5.85 g/m*3 6.3 C 0 km/h
37 18-04-2021 03:00:00 6.3 C 5.92 g/m*3 6.3 C 0 km/h
38 18-04-2021 03:05:00 6.3 C 5.92 g/m*3 6.3 C 0 km/h
39 18-04-2021 03:10:00 6.2 C 5.88 g/m*3 6.2 C 0 km/h
40 18-04-2021 03:15:00 6.2 C 5.81 g/m*3 6.2 C 0 km/h
41 18-04-2021 03:20:00 6.1 C 5.77 g/m*3 6.1 C 0 km/h
42 18-04-2021 03:25:00 6 C 5.81 g/m*3 6 C 0 km/h
43 18-04-2021 03:30:00 6 C 5.88 g/m*3 6 C 0 km/h
44 18-04-2021 03:35:00 6.1 C 5.92 g/m*3 6.1 C 0 km/h
45 18-04-2021 03:40:00 6.1 C 5.99 g/m*3 6.1 C 0 km/h
46 18-04-2021 03:45:00 6.1 C 5.99 g/m*3 6.1 C 0 km/h
47 18-04-2021 03:50:00 6.2 C 6.03 g/m*3 6.2 C 0 km/h
48 18-04-2021 03:55:00 6.2 C 5.96 g/m*3 6.2 C 0 km/h
49 18-04-2021 04:00:00 6.2 C 5.96 g/m*3 6.2 C 0 km/h
50 18-04-2021 04:05:00 6.2 C 5.96 g/m*3 6.2 C 0 km/h
Sensor: Nr:Datum:Temp:Abs-Feuchte:Windchill:Wind:
Aussen-T/F 51 18-04-2021 04:10:00 6.2 C 5.96 g/m*3 6.2 C 0 km/h
52 18-04-2021 04:15:00 6.3 C 6.07 g/m*3 6.3 C 0 km/h
53 18-04-2021 04:20:00 6.3 C 6 g/m*3 6.3 C 0 km/h
54 18-04-2021 04:25:00 6.3 C 6 g/m*3 6.3 C 0 km/h
55 18-04-2021 04:30:00 6.3 C 6 g/m*3 6.3 C 0 km/h
56 18-04-2021 04:35:00 6.3 C 6 g/m*3 6.3 C 0 km/h
57 18-04-2021 04:40:00 6.3 C 5.92 g/m*3 6.3 C 0 km/h
58 18-04-2021 04:45:00 6.4 C 5.96 g/m*3 6.4 C 0 km/h
59 18-04-2021 04:50:00 6.4 C 6.04 g/m*3 6.4 C 0 km/h
60 18-04-2021 04:55:00 6.4 C 5.96 g/m*3 6.4 C 0 km/h
61 18-04-2021 05:00:00 6.5 C 5.92 g/m*3 6.5 C 0 km/h
62 18-04-2021 05:05:00 6.5 C 5.85 g/m*3 6.5 C 0 km/h
63 18-04-2021 05:10:00 6.6 C 5.89 g/m*3 6.6 C 0 km/h
64 18-04-2021 05:15:00 6.6 C 5.96 g/m*3 6.6 C 0 km/h
65 18-04-2021 05:20:00 6.6 C 5.96 g/m*3 6.6 C 0 km/h
66 18-04-2021 05:25:00 6.7 C 6.08 g/m*3 6.7 C 0 km/h
67 18-04-2021 05:30:00 6.7 C 6.08 g/m*3 6.7 C 0 km/h
68 18-04-2021 05:35:00 6.7 C 6.08 g/m*3 6.7 C 0 km/h
69 18-04-2021 05:40:00 6.7 C 6 g/m*3 6.7 C 0 km/h
70 18-04-2021 05:45:00 6.7 C 6 g/m*3 6.7 C 0 km/h
71 18-04-2021 05:50:00 6.7 C 6 g/m*3 6.7 C 0 km/h
72 18-04-2021 05:55:00 6.7 C 5.85 g/m*3 6.7 C 3.2 km/h
73 18-04-2021 06:00:00 6.7 C 6 g/m*3 6.7 C 0 km/h
74 18-04-2021 06:05:00 6.8 C 5.97 g/m*3 6.8 C 1.6 km/h
75 18-04-2021 06:10:00 6.8 C 5.97 g/m*3 6.8 C 1.6 km/h
Sensor: Nr:Datum:Temp:Abs-Feuchte:Windchill:Wind:
Aussen-T/F 76 18-04-2021 06:15:00 6.8 C 6.04 g/m*3 6.8 C 0 km/h
77 18-04-2021 06:20:00 6.8 C 5.89 g/m*3 6.8 C 4.8 km/h
78 18-04-2021 06:25:00 6.8 C 5.89 g/m*3 6.8 C 0 km/h
79 18-04-2021 06:30:00 6.8 C 5.97 g/m*3 6.8 C 0 km/h
80 18-04-2021 06:35:00 6.8 C 5.97 g/m*3 6.8 C 0 km/h
81 18-04-2021 06:40:00 6.8 C 6.04 g/m*3 6.8 C 0 km/h
82 18-04-2021 06:45:00 6.8 C 6.04 g/m*3 6.8 C 0 km/h
83 18-04-2021 06:50:00 6.8 C 6.04 g/m*3 6.8 C 0 km/h
84 18-04-2021 06:55:00 6.7 C 6 g/m*3 6.7 C 0 km/h
85 18-04-2021 07:00:00 6.7 C 6 g/m*3 6.7 C 1.6 km/h
86 18-04-2021 07:05:00 6.7 C 5.93 g/m*3 6.7 C 0 km/h
87 18-04-2021 07:10:00 6.7 C 6 g/m*3 6.7 C 0 km/h
88 18-04-2021 07:15:00 6.7 C 6 g/m*3 6.7 C 0 km/h
89 18-04-2021 07:20:00 6.8 C 5.97 g/m*3 6.8 C 3.2 km/h
90 18-04-2021 07:25:00 6.8 C 5.97 g/m*3 6.8 C 1.6 km/h
91 18-04-2021 07:30:00 6.8 C 5.97 g/m*3 6.8 C 1.6 km/h
92 18-04-2021 07:35:00 6.9 C 6 g/m*3 6.9 C 0 km/h
93 18-04-2021 07:40:00 6.9 C 6 g/m*3 6.9 C 0 km/h
94 18-04-2021 07:45:00 6.9 C 6 g/m*3 6.9 C 0 km/h
95 18-04-2021 07:50:00 7 C 6.04 g/m*3 7 C 0 km/h
96 18-04-2021 07:55:00 7 C 6.04 g/m*3 7 C 4.8 km/h
97 18-04-2021 08:00:00 7 C 6.04 g/m*3 7 C 0 km/h
98 18-04-2021 08:05:00 7.1 C 6.01 g/m*3 7.1 C 4.8 km/h
99 18-04-2021 08:10:00 7.1 C 6.01 g/m*3 7.1 C 0 km/h
100 18-04-2021 08:15:00 7.1 C 6.01 g/m*3 7.1 C 0 km/h
Sensor: Nr:Datum:Temp:Abs-Feuchte:Windchill:Wind:
Aussen-T/F 101 18-04-2021 08:20:00 7.2 C 6.04 g/m*3 7.2 C 0 km/h
102 18-04-2021 08:25:00 7.2 C 6.04 g/m*3 7.2 C 0 km/h
103 18-04-2021 08:30:00 7.3 C 6.08 g/m*3 7.3 C 0 km/h
104 18-04-2021 08:35:00 7.3 C 6.08 g/m*3 7.3 C 0 km/h
105 18-04-2021 08:40:00 7.3 C 6.08 g/m*3 7.3 C 0 km/h
106 18-04-2021 08:45:00 7.4 C 6.2 g/m*3 7.4 C 0 km/h
107 18-04-2021 08:50:00 7.4 C 6.12 g/m*3 7.4 C 0 km/h
108 18-04-2021 08:55:00 7.5 C 6.16 g/m*3 7.5 C 0 km/h
109 18-04-2021 09:00:00 7.6 C 6.12 g/m*3 7.6 C 0 km/h
110 18-04-2021 09:05:00 7.6 C 6.12 g/m*3 7.6 C 0 km/h
111 18-04-2021 09:10:00 7.7 C 6.08 g/m*3 7.7 C 0 km/h
112 18-04-2021 09:15:00 7.7 C 6 g/m*3 7.7 C 0 km/h
113 18-04-2021 09:20:00 7.8 C 6.12 g/m*3 7.8 C 0 km/h
114 18-04-2021 09:25:00 7.8 C 6.12 g/m*3 7.8 C 0 km/h
115 18-04-2021 09:30:00 7.8 C 6.12 g/m*3 7.8 C 0 km/h
116 18-04-2021 09:35:00 7.9 C 6.16 g/m*3 7.9 C 0 km/h
117 18-04-2021 09:40:00 7.9 C 6.16 g/m*3 7.9 C 0 km/h
118 18-04-2021 09:45:00 7.9 C 6.24 g/m*3 7.9 C 0 km/h
119 18-04-2021 09:50:00 7.9 C 6.24 g/m*3 7.9 C 0 km/h
120 18-04-2021 09:55:00 7.9 C 6.24 g/m*3 7.9 C 0 km/h
121 18-04-2021 10:00:00 7.8 C 6.28 g/m*3 7.8 C 0 km/h
122 18-04-2021 10:05:00 7.8 C 6.37 g/m*3 7.8 C 0 km/h
123 18-04-2021 10:10:00 7.8 C 6.45 g/m*3 7.8 C 4.8 km/h
124 18-04-2021 10:15:00 7.8 C 6.37 g/m*3 7.8 C 1.6 km/h
125 18-04-2021 10:20:00 7.8 C 6.37 g/m*3 7.8 C 1.6 km/h
Sensor: Nr:Datum:Temp:Abs-Feuchte:Windchill:Wind:
Aussen-T/F 126 18-04-2021 10:25:00 7.8 C 6.45 g/m*3 7.8 C 0 km/h
127 18-04-2021 10:30:00 7.8 C 6.45 g/m*3 7.8 C 4.8 km/h
128 18-04-2021 10:35:00 7.7 C 6.41 g/m*3 7.7 C 4.8 km/h
129 18-04-2021 10:40:00 7.7 C 6.49 g/m*3 7.7 C 0 km/h
130 18-04-2021 10:45:00 7.7 C 6.57 g/m*3 7.7 C 0 km/h
131 18-04-2021 10:50:00 7.7 C 6.65 g/m*3 7.7 C 0 km/h
132 18-04-2021 10:55:00 7.8 C 6.77 g/m*3 7.8 C 0 km/h
133 18-04-2021 11:00:00 7.8 C 6.69 g/m*3 7.8 C 0 km/h
134 18-04-2021 11:05:00 7.8 C 6.61 g/m*3 7.8 C 0 km/h
135 18-04-2021 11:10:00 7.9 C 6.74 g/m*3 7.9 C 0 km/h
136 18-04-2021 11:15:00 7.9 C 6.74 g/m*3 7.9 C 3.2 km/h
137 18-04-2021 11:20:00 7.9 C 6.74 g/m*3 7.9 C 3.2 km/h
138 18-04-2021 11:25:00 8 C 6.7 g/m*3 8 C 0 km/h
139 18-04-2021 11:30:00 8 C 6.7 g/m*3 8 C 4.8 km/h
140 18-04-2021 11:35:00 8 C 6.7 g/m*3 8 C 3.2 km/h
141 18-04-2021 11:40:00 8 C 6.7 g/m*3 7.06 C 6.4 km/h
142 18-04-2021 11:45:00 8.1 C 6.74 g/m*3 8.1 C 4.8 km/h
143 18-04-2021 11:50:00 8.2 C 6.7 g/m*3 8.2 C 4.8 km/h
144 18-04-2021 11:55:00 8.3 C 6.74 g/m*3 8.3 C 3.2 km/h
145 18-04-2021 12:00:00 8.4 C 6.79 g/m*3 8.4 C 1.6 km/h
146 18-04-2021 12:05:00 8.4 C 6.7 g/m*3 7.52 C 6.4 km/h
147 18-04-2021 12:10:00 8.5 C 6.74 g/m*3 8.5 C 0 km/h
148 18-04-2021 12:15:00 8.6 C 6.7 g/m*3 8.6 C 3.2 km/h
149 18-04-2021 12:20:00 8.6 C 6.7 g/m*3 8.6 C 3.2 km/h
150 18-04-2021 12:25:00 8.7 C 6.75 g/m*3 8.7 C 4.8 km/h
Sensor: Nr:Datum:Temp:Abs-Feuchte:Windchill:Wind:
Aussen-T/F 151 18-04-2021 12:30:00 8.8 C 6.79 g/m*3 8.8 C 3.2 km/h
152 18-04-2021 12:35:00 8.8 C 6.7 g/m*3 8.8 C 1.6 km/h
153 18-04-2021 12:40:00 8.9 C 6.75 g/m*3 8.9 C 4.8 km/h
154 18-04-2021 12:45:00 9.1 C 6.83 g/m*3 9.1 C 3.2 km/h
155 18-04-2021 12:50:00 9.2 C 6.79 g/m*3 9.2 C 0 km/h
156 18-04-2021 12:55:00 9.3 C 6.83 g/m*3 9.3 C 1.6 km/h
157 18-04-2021 13:00:00 9.5 C 6.83 g/m*3 9.5 C 0 km/h
158 18-04-2021 13:05:00 9.7 C 6.91 g/m*3 9.7 C 3.2 km/h
159 18-04-2021 13:10:00 9.8 C 6.87 g/m*3 9.8 C 3.2 km/h
160 18-04-2021 13:15:00 10.1 C 7.09 g/m*3 10.1 C 1.6 km/h
161 18-04-2021 13:20:00 10.3 C 7.09 g/m*3 10.3 C 1.6 km/h
162 18-04-2021 13:25:00 10.6 C 7.12 g/m*3 10.6 C 4.8 km/h
163 18-04-2021 13:30:00 10.7 C 7.07 g/m*3 10.7 C 1.6 km/h
164 18-04-2021 13:35:00 10.8 C 7.12 g/m*3 10.8 C 0 km/h
165 18-04-2021 13:40:00 11 C 7.21 g/m*3 11 C 4.8 km/h
166 18-04-2021 13:45:00 11.1 C 7.15 g/m*3 11.1 C 3.2 km/h
167 18-04-2021 13:50:00 11.2 C 7.2 g/m*3 11.2 C 6.4 km/h
168 18-04-2021 13:55:00 11.3 C 7.24 g/m*3 11.3 C 8.1 km/h
169 18-04-2021 14:00:00 11.5 C 7.33 g/m*3 11.5 C 1.6 km/h
170 18-04-2021 14:05:00 11.7 C 7.32 g/m*3 11.7 C 4.8 km/h
171 18-04-2021 14:10:00 11.8 C 7.37 g/m*3 11.8 C 1.6 km/h
172 18-04-2021 14:15:00 11.9 C 7.2 g/m*3 11.9 C 9.7 km/h
173 18-04-2021 14:20:00 11.8 C 6.95 g/m*3 11.8 C 17.7 km/h
174 18-04-2021 14:25:00 11.8 C 7.05 g/m*3 11.8 C 9.7 km/h
175 18-04-2021 14:30:00 11.9 C 7.1 g/m*3 11.9 C 11.3 km/h
Sensor: Nr:Datum:Temp:Abs-Feuchte:Windchill:Wind:
Aussen-T/F 176 18-04-2021 14:35:00 12 C 7.14 g/m*3 12 C 16.1 km/h
177 18-04-2021 14:40:00 12.1 C 7.08 g/m*3 12.1 C 11.3 km/h
178 18-04-2021 14:45:00 12.2 C 7.23 g/m*3 12.2 C 11.3 km/h
179 18-04-2021 14:50:00 12.4 C 7.1 g/m*3 12.4 C 11.3 km/h
180 18-04-2021 14:55:00 12.4 C 7.1 g/m*3 12.4 C 16.1 km/h
181 18-04-2021 15:00:00 12.3 C 7.06 g/m*3 12.3 C 12.9 km/h
182 18-04-2021 15:05:00 12.2 C 7.01 g/m*3 12.2 C 11.3 km/h
183 18-04-2021 15:10:00 12.1 C 7.08 g/m*3 12.1 C 14.5 km/h
184 18-04-2021 15:15:00 12.1 C 7.18 g/m*3 12.1 C 11.3 km/h
185 18-04-2021 15:20:00 12.1 C 7.08 g/m*3 12.1 C 9.7 km/h
186 18-04-2021 15:25:00 12 C 7.25 g/m*3 12 C 4.8 km/h
187 18-04-2021 15:30:00 12.1 C 7.18 g/m*3 12.1 C 9.7 km/h
188 18-04-2021 15:35:00 12.1 C 7.18 g/m*3 12.1 C 12.9 km/h
189 18-04-2021 15:40:00 12.2 C 7.23 g/m*3 12.2 C 9.7 km/h
190 18-04-2021 15:45:00 12.2 C 7.23 g/m*3 12.2 C 9.7 km/h
191 18-04-2021 15:50:00 12.3 C 7.38 g/m*3 12.3 C 6.4 km/h
192 18-04-2021 15:55:00 12.5 C 7.48 g/m*3 12.5 C 11.3 km/h
193 18-04-2021 16:00:00 12.6 C 7.3 g/m*3 12.6 C 11.3 km/h
194 18-04-2021 16:05:00 12.7 C 7.46 g/m*3 12.7 C 14.5 km/h
195 18-04-2021 16:10:00 12.7 C 7.46 g/m*3 12.7 C 12.9 km/h
196 18-04-2021 16:15:00 12.7 C 7.46 g/m*3 12.7 C 9.7 km/h
197 18-04-2021 16:20:00 12.7 C 7.35 g/m*3 12.7 C 6.4 km/h
198 18-04-2021 16:25:00 12.7 C 7.46 g/m*3 12.7 C 9.7 km/h
199 18-04-2021 16:30:00 12.6 C 7.41 g/m*3 12.6 C 8.1 km/h
200 18-04-2021 16:35:00 12.6 C 7.52 g/m*3 12.6 C 8.1 km/h
Sensor: Nr:Datum:Temp:Abs-Feuchte:Windchill:Wind:
Aussen-T/F 201 18-04-2021 16:40:00 12.6 C 7.52 g/m*3 12.6 C 4.8 km/h
202 18-04-2021 16:45:00 12.5 C 7.37 g/m*3 12.5 C 9.7 km/h
203 18-04-2021 16:50:00 12.5 C 7.48 g/m*3 12.5 C 8.1 km/h
204 18-04-2021 16:55:00 12.5 C 7.59 g/m*3 12.5 C 6.4 km/h
205 18-04-2021 17:00:00 12.6 C 7.52 g/m*3 12.6 C 4.8 km/h
206 18-04-2021 17:05:00 12.6 C 7.41 g/m*3 12.6 C 3.2 km/h
207 18-04-2021 17:10:00 12.7 C 7.46 g/m*3 12.7 C 8.1 km/h
208 18-04-2021 17:15:00 12.7 C 7.57 g/m*3 12.7 C 6.4 km/h
209 18-04-2021 17:20:00 12.7 C 7.57 g/m*3 12.7 C 6.4 km/h
210 18-04-2021 17:25:00 12.7 C 7.46 g/m*3 12.7 C 9.7 km/h
211 18-04-2021 17:30:00 12.8 C 7.62 g/m*3 12.8 C 4.8 km/h
212 18-04-2021 17:35:00 12.9 C 7.55 g/m*3 12.9 C 11.3 km/h
213 18-04-2021 17:40:00 12.9 C 7.66 g/m*3 12.9 C 8.1 km/h
214 18-04-2021 17:45:00 13.3 C 7.86 g/m*3 13.3 C 4.8 km/h
215 18-04-2021 17:50:00 13.6 C 7.53 g/m*3 13.6 C 14.5 km/h
216 18-04-2021 17:55:00 13.4 C 7.56 g/m*3 13.4 C 11.3 km/h
217 18-04-2021 18:00:00 13.2 C 7.35 g/m*3 13.2 C 9.7 km/h
218 18-04-2021 18:05:00 12.9 C 7.33 g/m*3 12.9 C 11.3 km/h
219 18-04-2021 18:10:00 12.8 C 7.39 g/m*3 12.8 C 8.1 km/h
220 18-04-2021 18:15:00 12.7 C 7.35 g/m*3 12.7 C 6.4 km/h
221 18-04-2021 18:20:00 12.7 C 7.35 g/m*3 12.7 C 14.5 km/h
222 18-04-2021 18:25:00 12.7 C 7.46 g/m*3 12.7 C 4.8 km/h
223 18-04-2021 18:30:00 12.6 C 7.3 g/m*3 12.6 C 3.2 km/h
224 18-04-2021 18:35:00 12.6 C 7.41 g/m*3 12.6 C 8.1 km/h
225 18-04-2021 18:40:00 12.5 C 7.48 g/m*3 12.5 C 6.4 km/h
Sensor: Nr:Datum:Temp:Abs-Feuchte:Windchill:Wind:
Aussen-T/F 226 18-04-2021 18:45:00 12.5 C 7.37 g/m*3 12.5 C 4.8 km/h
227 18-04-2021 18:50:00 12.4 C 7.32 g/m*3 12.4 C 8.1 km/h
228 18-04-2021 18:55:00 12.4 C 7.43 g/m*3 12.4 C 4.8 km/h
229 18-04-2021 19:00:00 12.3 C 7.28 g/m*3 12.3 C 4.8 km/h
230 18-04-2021 19:05:00 12.3 C 7.6 g/m*3 12.3 C 0 km/h
231 18-04-2021 19:10:00 12.2 C 7.77 g/m*3 12.2 C 1.6 km/h
232 18-04-2021 19:15:00 12.1 C 7.83 g/m*3 12.1 C 1.6 km/h
233 18-04-2021 19:20:00 11.9 C 7.73 g/m*3 11.9 C 0 km/h
234 18-04-2021 19:25:00 11.8 C 7.79 g/m*3 11.8 C 1.6 km/h
235 18-04-2021 19:30:00 11.7 C 7.84 g/m*3 11.7 C 0 km/h
236 18-04-2021 19:35:00 11.6 C 7.59 g/m*3 11.6 C 4.8 km/h
237 18-04-2021 19:40:00 11.4 C 7.7 g/m*3 11.4 C 1.6 km/h
238 18-04-2021 19:45:00 11.4 C 7.9 g/m*3 11.4 C 1.6 km/h
239 18-04-2021 19:50:00 11.3 C 7.85 g/m*3 11.3 C 6.4 km/h
240 18-04-2021 19:55:00 11.2 C 8.01 g/m*3 11.2 C 3.2 km/h
241 18-04-2021 20:00:00 11 C 8.01 g/m*3 11 C 4.8 km/h
242 18-04-2021 20:05:00 10.8 C 8.01 g/m*3 10.29 C 6.4 km/h
243 18-04-2021 20:10:00 10.7 C 7.96 g/m*3 10.18 C 6.4 km/h
244 18-04-2021 20:15:00 10.6 C 7.91 g/m*3 10.06 C 6.4 km/h
245 18-04-2021 20:20:00 10.4 C 7.81 g/m*3 10.4 C 4.8 km/h
246 18-04-2021 20:25:00 10.3 C 7.76 g/m*3 10.3 C 3.2 km/h
247 18-04-2021 20:30:00 10.3 C 7.76 g/m*3 10.3 C 4.8 km/h
248 18-04-2021 20:35:00 10.2 C 7.8 g/m*3 10.2 C 3.2 km/h
249 18-04-2021 20:40:00 10.1 C 7.75 g/m*3 10.1 C 3.2 km/h
250 18-04-2021 20:45:00 10.1 C 7.75 g/m*3 10.1 C 1.6 km/h
Sensor: Nr:Datum:Temp:Abs-Feuchte:Windchill:Wind:
Aussen-T/F 251 18-04-2021 20:50:00 9.9 C 7.66 g/m*3 9.9 C 0 km/h
252 18-04-2021 20:55:00 9.9 C 7.75 g/m*3 9.9 C 4.8 km/h
253 18-04-2021 21:00:00 9.8 C 7.7 g/m*3 9.8 C 0 km/h
254 18-04-2021 21:05:00 9.7 C 7.65 g/m*3 9.7 C 0 km/h
255 18-04-2021 21:10:00 9.7 C 7.65 g/m*3 9.7 C 0 km/h
256 18-04-2021 21:15:00 9.5 C 7.65 g/m*3 9.5 C 0 km/h
257 18-04-2021 21:20:00 9.4 C 7.6 g/m*3 9.4 C 0 km/h
258 18-04-2021 21:25:00 9.3 C 7.55 g/m*3 9.3 C 0 km/h
259 18-04-2021 21:30:00 9.2 C 7.5 g/m*3 9.2 C 1.6 km/h
260 18-04-2021 21:35:00 9.2 C 7.59 g/m*3 9.2 C 0 km/h
261 18-04-2021 21:40:00 9.1 C 7.54 g/m*3 9.1 C 0 km/h
262 18-04-2021 21:45:00 9.1 C 7.63 g/m*3 9.1 C 0 km/h
263 18-04-2021 21:50:00 9.1 C 7.63 g/m*3 9.1 C 0 km/h
264 18-04-2021 21:55:00 9.1 C 7.63 g/m*3 9.1 C 0 km/h
265 18-04-2021 22:00:00 9.1 C 7.72 g/m*3 9.1 C 0 km/h
266 18-04-2021 22:05:00 9.1 C 7.72 g/m*3 9.1 C 1.6 km/h
267 18-04-2021 22:10:00 9.1 C 7.72 g/m*3 9.1 C 0 km/h
268 18-04-2021 22:15:00 9.1 C 7.72 g/m*3 9.1 C 0 km/h
269 18-04-2021 22:20:00 9.1 C 7.72 g/m*3 9.1 C 0 km/h
270 18-04-2021 22:25:00 9.1 C 7.72 g/m*3 9.1 C 0 km/h
271 18-04-2021 22:30:00 9.1 C 7.72 g/m*3 9.1 C 1.6 km/h
272 18-04-2021 22:35:00 9.1 C 7.72 g/m*3 9.1 C 0 km/h
273 18-04-2021 22:40:00 9.1 C 7.72 g/m*3 9.1 C 0 km/h
274 18-04-2021 22:45:00 9 C 7.67 g/m*3 9 C 0 km/h
275 18-04-2021 22:50:00 8.9 C 7.62 g/m*3 8.9 C 0 km/h
Sensor: Nr:Datum:Temp:Abs-Feuchte:Windchill:Wind:
Aussen-T/F 276 18-04-2021 22:55:00 8.8 C 7.49 g/m*3 8.8 C 0 km/h
277 18-04-2021 23:00:00 8.6 C 7.39 g/m*3 8.6 C 0 km/h
278 18-04-2021 23:05:00 8.4 C 7.3 g/m*3 8.4 C 0 km/h
279 18-04-2021 23:10:00 8.3 C 7.25 g/m*3 8.3 C 0 km/h
280 18-04-2021 23:15:00 8.2 C 7.29 g/m*3 8.2 C 0 km/h
281 18-04-2021 23:20:00 8.1 C 7.24 g/m*3 8.1 C 0 km/h
282 18-04-2021 23:25:00 8.1 C 7.32 g/m*3 8.1 C 4.8 km/h
283 18-04-2021 23:30:00 8.1 C 7.32 g/m*3 8.1 C 0 km/h
284 18-04-2021 23:35:00 8.1 C 7.41 g/m*3 8.1 C 4.8 km/h
285 18-04-2021 23:40:00 8.1 C 7.41 g/m*3 8.1 C 3.2 km/h
286 18-04-2021 23:45:00 8.2 C 7.45 g/m*3 8.2 C 1.6 km/h
287 18-04-2021 23:50:00 8.2 C 7.45 g/m*3 8.2 C 0 km/h
288 18-04-2021 23:55:00 8.2 C 7.45 g/m*3 8.2 C 0 km/h

Legende:
   Min
   Max


Maximal/Minimal-Werte vom 23.02.2003 - 30.09.2020

Sensor Min Max Avg
Temp
(Aussen-T/F)
-16.4 °C
20-12-2009  01:30:01
40.4 °C
25-07-2019  16:20:00
11.32 °C

Die Daten stammen von einer Davis Vantage Pro 2 Wetter-Station und werden unter Linux mit der Software wview2wettercgi und aufbereitet. Alle Angaben erfolgen ohne Gewähr für ihre Vollständigkeit oder Richtigkeit.
Kontakt: Rainer Krienke krienke@uni-koblenz.de . Meine Webseiten an der Uni Koblenz oder privat.
Version: $Revision: 0.78 $